INSAT-3DR

Last updated on Wed Jul 16 2025 00:02:22 GMT+0000 (Coordinated Universal Time)

1 41752U 16054A 25196.50191691 -.00000069 00000+0 00000+0 0 9994 2 41752 0.0781 92.2092 0010385 172.5263 283.5428 1.00270322 32446
UTC large
Height (km)
Speed (km/s)
/
Latitude / Longitude
Inclination (degrees)
Orbital Period (minutes)
Azimuth
Elevation
Range (km)
Doppler Factor

Next 0 passes for location: London (51.5072 / 0.1276)

Sorry there are no passes over London.